TimeCDT,TemperatureF,Dew PointF,Humidity,Sea Level PressureIn,VisibilityMPH,Wind Direction,Wind SpeedMPH,Gust SpeedMPH,PrecipitationIn,Events,Conditions,WindDirDegrees,DateUTC
12:52 AM,60.1,48.0,64,30.05,10.0,Calm,Calm,-,N/A,,Clear,0,2013-09-14 05:52:00
1:52 AM,53.1,46.9,80,30.05,10.0,Calm,Calm,-,N/A,,Clear,0,2013-09-14 06:52:00
2:52 AM,57.9,48.0,70,30.04,10.0,ENE,3.5,-,N/A,,Clear,70,2013-09-14 07:52:00
3:52 AM,57.9,48.9,72,30.04,10.0,East,4.6,-,N/A,,Clear,90,2013-09-14 08:52:00
4:52 AM,57.0,48.9,74,30.04,10.0,East,6.9,-,N/A,,Clear,90,2013-09-14 09:52:00
5:52 AM,57.0,48.9,74,30.03,10.0,East,9.2,-,N/A,,Clear,100,2013-09-14 10:52:00
6:52 AM,55.9,48.9,77,30.05,10.0,East,9.2,-,N/A,,Clear,100,2013-09-14 11:52:00
7:52 AM,57.0,50.0,77,30.07,10.0,ESE,8.1,-,N/A,,Clear,110,2013-09-14 12:52:00
8:52 AM,60.1,52.0,75,30.08,10.0,ESE,10.4,-,N/A,,Clear,120,2013-09-14 13:52:00
9:52 AM,66.0,54.0,65,30.09,10.0,ESE,8.1,-,N/A,,Clear,120,2013-09-14 14:52:00
10:52 AM,72.0,53.1,51,30.08,10.0,SE,12.7,-,N/A,,Clear,140,2013-09-14 15:52:00
11:52 AM,73.9,52.0,46,30.06,10.0,SSE,13.8,-,N/A,,Clear,150,2013-09-14 16:52:00
12:52 PM,78.1,53.1,42,30.05,10.0,ESE,10.4,18.4,N/A,,Clear,120,2013-09-14 17:52:00
1:52 PM,78.1,53.1,42,30.03,10.0,Variable,6.9,-,N/A,,Clear,0,2013-09-14 18:52:00
2:52 PM,81.0,53.1,38,30.00,10.0,Variable,5.8,-,N/A,,Clear,0,2013-09-14 19:52:00
3:52 PM,81.0,52.0,36,29.98,10.0,ESE,8.1,-,N/A,,Clear,120,2013-09-14 20:52:00
4:52 PM,81.0,53.1,38,29.96,10.0,SSE,6.9,-,N/A,,Clear,160,2013-09-14 21:52:00
5:52 PM,80.1,53.1,39,29.95,10.0,SSE,6.9,-,N/A,,Clear,150,2013-09-14 22:52:00
6:52 PM,77.0,54.0,45,29.96,10.0,ESE,5.8,-,N/A,,Clear,110,2013-09-14 23:52:00
7:52 PM,73.0,54.0,51,29.95,10.0,ESE,5.8,-,N/A,,Clear,120,2013-09-15 00:52:00
8:52 PM,72.0,53.1,51,29.95,10.0,SE,6.9,-,N/A,,Clear,140,2013-09-15 01:52:00
9:52 PM,70.0,53.1,55,29.95,10.0,ESE,5.8,-,N/A,,Clear,120,2013-09-15 02:52:00
10:52 PM,68.0,53.1,59,29.96,10.0,SE,6.9,-,N/A,,Clear,140,2013-09-15 03:52:00
11:52 PM,68.0,53.1,59,29.95,10.0,SE,8.1,-,N/A,,Clear,140,2013-09-15 04:52:00